| time (UTC) | temp F | wind direction | speed MPH | gust MPH | rain 1hr in | rain 24hr in | rain mn in | humidity % | barometer mb |
| 20260831011608 | 65 | 300 | 10.0 | 19.0 | 0.00 | 0.00 | 0.00 | 53 | 1018.4 |
| 20260831010105 | 66 | 313 | 9.0 | 18.0 | 0.00 | 0.00 | 0.00 | 51 | 1018.5 |
| 20260831004531 | 67 | 314 | 8.0 | 19.0 | 0.00 | 0.00 | 0.00 | 49 | 1018.5 |
| 20260831003029 | 68 | 312 | 8.0 | 17.0 | 0.00 | 0.00 | 0.00 | 49 | 1018.6 |
| 20260831001645 | 68 | 318 | 10.0 | 20.0 | 0.00 | 0.00 | 0.00 | 48 | 1018.5 |
| 20260831000032 | 69 | 322 | 10.0 | 20.0 | 0.00 | 0.00 | 0.00 | 44 | 1018.6 |
| 20260830234532 | 70 | 319 | 11.0 | 25.0 | 0.00 | 0.00 | 0.00 | 43 | 1018.7 |
| 20260830233030 | 70 | 317 | 10.0 | 18.0 | 0.00 | 0.00 | 0.00 | 43 | 1018.8 |
| 20260830231602 | 70 | 317 | 10.0 | 22.0 | 0.00 | 0.00 | 0.00 | 43 | 1018.9 |
| 20260830230029 | 70 | 307 | 10.0 | 20.0 | 0.00 | 0.00 | 0.00 | 45 | 1019.1 |
| 20260830224533 | 69 | 322 | 10.0 | 20.0 | 0.00 | 0.00 | 0.00 | 45 | 1019.2 |
| 20260830220028 | 69 | 334 | 11.0 | 21.0 | 0.00 | 0.00 | 0.00 | 47 | 1019.7 |
| 20260830214528 | 68 | 334 | 11.0 | 22.0 | 0.00 | 0.00 | 0.00 | 48 | 1019.9 |
| 20260830213031 | 68 | 326 | 11.0 | 21.0 | 0.00 | 0.00 | 0.00 | 49 | 1020.1 |
| 20260830211536 | 67 | 331 | 10.0 | 22.0 | 0.00 | 0.00 | 0.00 | 50 | 1020.2 |
| 20260830210030 | 67 | 328 | 11.0 | 19.0 | 0.00 | 0.00 | 0.00 | 50 | 1020.3 |
| 20260830204525 | 67 | 333 | 10.0 | 19.0 | 0.00 | 0.00 | 0.00 | 51 | 1020.3 |
| 20260830203031 | 67 | 331 | 10.0 | 18.0 | 0.00 | 0.00 | 0.00 | 52 | 1020.5 |
| 20260830201531 | 66 | 340 | 10.0 | 18.0 | 0.00 | 0.00 | 0.00 | 52 | 1020.6 |
| 20260830200030 | 66 | 330 | 8.0 | 18.0 | 0.00 | 0.00 | 0.00 | 53 | 1020.8 |
| 20260830194645 | 64 | 325 | 8.0 | 16.0 | 0.00 | 0.00 | 0.00 | 54 | 1021.0 |
| 20260830193032 | 64 | 324 | 9.0 | 18.0 | 0.00 | 0.00 | 0.00 | 56 | 1021.1 |
| 20260830191605 | 65 | 326 | 7.0 | 15.0 | 0.00 | 0.00 | 0.00 | 56 | 1021.2 |
| 20260830184530 | 63 | 325 | 6.0 | 14.0 | 0.00 | 0.00 | 0.00 | 59 | 1021.6 |
| 20260830183031 | 63 | 312 | 6.0 | 15.0 | 0.00 | 0.00 | 0.00 | 59 | 1021.6 |
| 20260830181528 | 63 | 20 | 5.0 | 11.0 | 0.00 | 0.00 | 0.00 | 60 | 1021.6 |
| 20260830180029 | 63 | 83 | 4.0 | 8.0 | 0.00 | 0.00 | 0.00 | 61 | 1021.7 |
| 20260830174604 | 62 | 79 | 4.0 | 9.0 | 0.00 | 0.00 | 0.00 | 62 | 1021.6 |
| 20260830173029 | 62 | 121 | 3.0 | 9.0 | 0.00 | 0.00 | 0.00 | 62 | 1021.6 |
| 20260830171530 | 61 | 114 | 3.0 | 7.0 | 0.00 | 0.00 | 0.00 | 63 | 1021.7 |
| 20260830164533 | 59 | 68 | 2.0 | 7.0 | 0.00 | 0.00 | 0.00 | 66 | 1022.0 |
| 20260830163031 | 58 | 128 | 2.0 | 8.0 | 0.00 | 0.00 | 0.00 | 68 | 1022.1 |
| 20260830161644 | 56 | 24 | 2.0 | 5.0 | 0.00 | 0.00 | 0.00 | 71 | 1022.3 |
| 20260830160032 | 55 | 357 | 1.0 | 4.0 | 0.00 | 0.00 | 0.00 | 72 | 1022.4 |
| 20260830154529 | 54 | 26 | 1.0 | 4.0 | 0.00 | 0.00 | 0.00 | 73 | 1022.4 |
| 20260830153027 | 54 | 25 | 2.0 | 6.0 | 0.00 | 0.00 | 0.00 | 75 | 1022.5 |
| 20260830151608 | 53 | 39 | 1.0 | 4.0 | 0.00 | 0.00 | 0.00 | 77 | 1022.4 |
| 20260830150030 | 51 | 15 | 1.0 | 3.0 | 0.00 | 0.00 | 0.00 | 79 | 1022.5 |
| 20260830144529 | 50 | 360 | 0.0 | 2.0 | 0.00 | 0.00 | 0.00 | 82 | 1022.5 |
| 20260830143031 | 48 | 356 | 1.0 | 3.0 | 0.00 | 0.00 | 0.00 | 86 | 1022.4 |
| 20260830141646 | 46 | 315 | 2.0 | 4.0 | 0.00 | 0.00 | 0.00 | 88 | 1022.3 |
| 20260830140028 | 45 | 304 | 3.0 | 4.0 | 0.00 | 0.00 | 0.00 | 87 | 1022.0 |
| 20260830134530 | 45 | 310 | 3.0 | 5.0 | 0.00 | 0.00 | 0.00 | 85 | 1021.9 |
| 20260830133034 | 46 | 299 | 3.0 | 8.0 | 0.00 | 0.00 | 0.00 | 84 | 1021.7 |
| 20260830131531 | 47 | 252 | 2.0 | 6.0 | 0.00 | 0.00 | 0.00 | 83 | 1021.6 |
| 20260830130028 | 47 | 274 | 2.0 | 7.0 | 0.00 | 0.00 | 0.00 | 83 | 1021.5 |
| 20260830124534 | 48 | 284 | 4.0 | 6.0 | 0.00 | 0.00 | 0.00 | 83 | 1021.6 |
| 20260830123104 | 47 | 267 | 4.0 | 7.0 | 0.00 | 0.00 | 0.00 | 83 | 1021.6 |
| 20260830121617 | 47 | 273 | 5.0 | 9.0 | 0.00 | 0.00 | 0.00 | 84 | 1021.5 |
| 20260830120031 | 47 | 267 | 4.0 | 7.0 | 0.00 | 0.00 | 0.00 | 84 | 1021.6 |
| 20260830114526 | 47 | 272 | 5.0 | 8.0 | 0.00 | 0.00 | 0.00 | 83 | 1021.5 |
| 20260830113031 | 47 | 269 | 5.0 | 8.0 | 0.00 | 0.00 | 0.00 | 83 | 1021.5 |
| 20260830111530 | 47 | 266 | 4.0 | 8.0 | 0.00 | 0.00 | 0.00 | 82 | 1021.6 |
| 20260830110031 | 48 | 267 | 5.0 | 8.0 | 0.00 | 0.00 | 0.00 | 82 | 1021.5 |
| 20260830104530 | 48 | 262 | 5.0 | 8.0 | 0.00 | 0.00 | 0.00 | 83 | 1021.5 |
| 20260830103109 | 47 | 271 | 4.0 | 7.0 | 0.00 | 0.00 | 0.00 | 83 | 1021.6 |
| 20260830100031 | 48 | 356 | 0.0 | 4.0 | 0.00 | 0.00 | 0.00 | 81 | 1021.5 |
| 20260830093030 | 49 | 254 | 3.0 | 6.0 | 0.00 | 0.00 | 0.00 | 80 | 1021.5 |
| 20260830091531 | 49 | 260 | 3.0 | 7.0 | 0.00 | 0.00 | 0.00 | 80 | 1021.5 |
| 20260830090033 | 49 | 272 | 5.0 | 7.0 | 0.00 | 0.00 | 0.00 | 79 | 1021.5 |
| 20260830084530 | 49 | 265 | 4.0 | 8.0 | 0.00 | 0.00 | 0.00 | 80 | 1021.6 |
| 20260830083106 | 47 | 256 | 4.0 | 7.0 | 0.00 | 0.00 | 0.00 | 82 | 1021.7 |
| 20260830074530 | 48 | 305 | 3.0 | 7.0 | 0.00 | 0.00 | 0.00 | 81 | 1021.8 |
| 20260830073031 | 49 | 265 | 2.0 | 5.0 | 0.00 | 0.00 | 0.00 | 81 | 1021.7 |
| 20260830071606 | 49 | 277 | 4.0 | 6.0 | 0.00 | 0.00 | 0.00 | 81 | 1021.7 |
| 20260830070035 | 49 | 304 | 4.0 | 8.0 | 0.00 | 0.00 | 0.00 | 80 | 1021.7 |
| 20260830064529 | 49 | 310 | 5.0 | 9.0 | 0.00 | 0.00 | 0.00 | 79 | 1021.7 |
| 20260830063032 | 49 | 294 | 4.0 | 6.0 | 0.00 | 0.00 | 0.00 | 76 | 1021.7 |
| 20260830061530 | 49 | 305 | 3.0 | 5.0 | 0.00 | 0.00 | 0.00 | 76 | 1021.7 |
| 20260830060027 | 49 | 294 | 3.0 | 6.0 | 0.00 | 0.00 | 0.00 | 77 | 1021.9 |
| 20260830054605 | 50 | 275 | 2.0 | 5.0 | 0.00 | 0.00 | 0.00 | 76 | 1021.7 |
| 20260830053031 | 51 | 286 | 3.0 | 5.0 | 0.00 | 0.00 | 0.00 | 75 | 1021.8 |
| 20260830050028 | 51 | 285 | 4.0 | 7.0 | 0.00 | 0.00 | 0.00 | 76 | 1021.8 |
| 20260830044530 | 51 | 251 | 3.0 | 5.0 | 0.00 | 0.00 | 0.00 | 75 | 1021.8 |
| 20260830043031 | 52 | 282 | 3.0 | 6.0 | 0.00 | 0.00 | 0.00 | 73 | 1021.6 |
| 20260830040032 | 54 | 218 | 2.0 | 5.0 | 0.00 | 0.00 | 0.00 | 68 | 1021.3 |
| 20260830034531 | 56 | 232 | 2.0 | 7.0 | 0.00 | 0.00 | 0.00 | 65 | 1021.2 |
| 20260830031531 | 56 | 272 | 5.0 | 13.0 | 0.00 | 0.00 | 0.00 | 67 | 1021.2 |
| 20260830024531 | 57 | 245 | 4.0 | 10.0 | 0.00 | 0.00 | 0.00 | 66 | 1021.0 |